Location: Cheching
(60.0667°N, 164.2167°W)
Time: 21:49:20
(UTC+00:00)

XW-2D - Pass Details

Date: 16 January 2021
Orbit: 505 x 525 km, 97.5° (Epoch: 07 March)

Event Time Altitude Azimuth Distance (km) Brightness Sun altitude
Rises 16:49:53 0° 18° (NNE) 2,665 ? -20.0°
Reaches altitude 10° 16:52:03 10° 24° (NNE) 1,774 ? -19.7°
Maximum altitude 16:55:47 48° 100° (E) 693 ? -19.3°
Drops below altitude 10° 16:59:29 10° 176° (S) 1,769 ? -18.8°
Sets 17:01:39 0° 182° (S) 2,655 ? -18.6°
